Regional Weather Roundup
Issued by NWS

Home | Current Version | Previous Version | Text Only | Print | Product List | Glossary Off
Versions: 1 2 3 4 5 6 7 8 9 10 11 12 13 14 15 16 17 18 19 20 21 22 23 24 25 26 27 28 29 30 31 32 33 34 35 36 37 38 39 40 41 42 43 44 45 46 47 48 49 50

000
ASUS43 KLMK 301402
RWRKY
KENTUCKY REGIONAL WEATHER ROUNDUP
NATIONAL WEATHER SERVICE LOUISVILLE KY
1000 AM EDT SAT MAY 30 2015

NOTE "FAIR" INDICATES FEW OR NO CLOUDS BELOW 12,000 FEET
WITH NO SIGNIFICANT WEATHER AND/OR OBSTRUCTIONS TO VISIBILITY.

KYZ001>023-026-027-061>063-070>075-301500-
WESTERN AND SOUTH CENTRAL KENTUCKY

CITY           SKY/WX    TMP DP  RH WIND       PRES   REMARKS
PADUCAH        PTSUNNY   76  67  73 S9G20     29.99S
HENDERSON      MOSUNNY   79  66  65 S12       30.00F
OWENSBORO      MOSUNNY   78  69  73 S15       30.03S
HOPKINSVILLE   MOSUNNY   75  67  76 S10       30.05R
BOWLING GREEN  SUNNY     78  66  66 S14       30.08R
GLASGOW        NOT AVBL
$$

KYZ024-025-028>034-038-045-046-053-301500-
NORTH CENTRAL KENTUCKY

CITY           SKY/WX    TMP DP  RH WIND       PRES   REMARKS
LOUISVILLE/SDF SUNNY     79  67  66 S13       30.06F
LOUISVILLE/LOU SUNNY     77  66  68 S9        30.07F
FORT KNOX      SUNNY     78  67  70 S8        30.06S
$$

KYZ035>037-039>044-047>052-055>060-089>105-301500-
NORTHEAST KENTUCKY

CITY           SKY/WX    TMP DP  RH WIND       PRES   REMARKS
LEXINGTON      PTSUNNY   75  66  73 S10       30.12S
COVINGTON      MOSUNNY   76  67  73 S7        30.09S
FRANKFORT      PTSUNNY   77  65  66 S9        30.09S
$$

KYZ054-064>069-076>088-106>120-301500-
SOUTHEAST KENTUCKY

CITY           SKY/WX    TMP DP  RH WIND       PRES   REMARKS
JACKSON        PTSUNNY   72  63  73 CALM      30.18S
LONDON         PTSUNNY   74  62  66 S9        30.17S
SOMERSET       NOT AVBL
MIDDLESBORO    CLOUDY    76  64  66 SE6       30.20S
MONTICELLO     MOSUNNY   76  65  68 S7        30.17S
$$




USA.gov is the U.S. government's official web portal to all federal, state and local government web resources and services.